カタログに戻る

SL-8 R/B

運用中LEO
NORAD 19039·ROCKET BODY·🇷🇺 Russia

打ち上げ Apr 5, 1988 から Plesetsk Cosmodrome

Loading…

次のパス (今後24時間)

TLE

最新Source: Space-Track

元期: Sep 14, 2026, 06:41 UTC

1 19039U 88029B   26257.27901674  .00000181  00000-0  65683-4 0  9999
2 19039  74.0477 197.3200 0024442 253.7850 106.0615 14.40038942 16079

AllMySatでSL-8 R/Bをリアルタイム追跡

Download on the App Store